| time (UTC) | temp F | wind direction | speed MPH | gust MPH | rain 1hr in | rain 24hr in | rain mn in | humidity % | barometer mb |
| 20260902210932 | 82 | 25 | 2.0 | 4.0 | 0.00 | 0.24 | 0.24 | 75 | 1012.0 |
| 20260902210434 | 81 | 327 | 2.0 | 4.0 | 0.00 | 0.24 | 0.24 | 75 | 1012.0 |
| 20260902205932 | 81 | 24 | 2.0 | 5.0 | 0.00 | 0.24 | 0.24 | 74 | 1012.0 |
| 20260902205431 | 81 | 36 | 3.0 | 6.0 | 0.00 | 0.24 | 0.24 | 74 | 1012.0 |
| 20260902205202 | 81 | 330 | 4.0 | 6.0 | 0.00 | 0.24 | 0.24 | 73 | 1012.2 |
| 20260902204703 | 81 | 49 | 4.0 | 9.0 | 0.00 | 0.24 | 0.24 | 74 | 1012.2 |
| 20260902203932 | 81 | 317 | 3.0 | 9.0 | 0.00 | 0.24 | 0.24 | 73 | 1012.3 |
| 20260902203425 | 81 | 347 | 3.0 | 6.0 | 0.00 | 0.24 | 0.24 | 74 | 1012.3 |
| 20260902203157 | 81 | 347 | 2.0 | 6.0 | 0.00 | 0.24 | 0.24 | 74 | 1012.3 |
| 20260902202657 | 81 | 0 | 2.0 | 6.0 | 0.00 | 0.24 | 0.24 | 74 | 1012.2 |
| 20260902201925 | 81 | 5 | 4.0 | 6.0 | 0.00 | 0.24 | 0.24 | 73 | 1012.2 |
| 20260902201426 | 81 | 331 | 4.0 | 7.0 | 0.00 | 0.24 | 0.24 | 74 | 1012.3 |
| 20260902200926 | 81 | 325 | 4.0 | 8.0 | 0.00 | 0.24 | 0.24 | 73 | 1012.4 |
| 20260902200425 | 81 | 292 | 4.0 | 8.0 | 0.00 | 0.24 | 0.24 | 73 | 1012.4 |
| 20260902195923 | 81 | 319 | 4.0 | 6.0 | 0.00 | 0.24 | 0.24 | 73 | 1012.3 |
| 20260902195655 | 81 | 312 | 3.0 | 5.0 | 0.00 | 0.24 | 0.24 | 74 | 1012.3 |
| 20260902194924 | 81 | 5 | 3.0 | 7.0 | 0.00 | 0.24 | 0.24 | 72 | 1012.3 |
| 20260902194423 | 82 | 39 | 3.0 | 7.0 | 0.00 | 0.24 | 0.24 | 73 | 1012.3 |
| 20260902194154 | 82 | 319 | 2.0 | 5.0 | 0.00 | 0.24 | 0.24 | 73 | 1012.3 |
| 20260902193421 | 82 | 37 | 2.0 | 5.0 | 0.00 | 0.24 | 0.24 | 73 | 1012.3 |
| 20260902192915 | 82 | 326 | 2.0 | 4.0 | 0.00 | 0.24 | 0.24 | 72 | 1012.4 |
| 20260902192416 | 82 | 330 | 1.0 | 4.0 | 0.00 | 0.24 | 0.24 | 71 | 1012.3 |
| 20260902191916 | 82 | 122 | 1.0 | 4.0 | 0.00 | 0.24 | 0.24 | 71 | 1012.3 |
| 20260902191416 | 82 | 123 | 1.0 | 4.0 | 0.00 | 0.24 | 0.24 | 72 | 1012.3 |
| 20260902190916 | 81 | 134 | 2.0 | 3.0 | 0.00 | 0.24 | 0.24 | 71 | 1012.3 |
| 20260902190417 | 81 | 130 | 2.0 | 4.0 | 0.00 | 0.24 | 0.24 | 72 | 1012.2 |
| 20260902185911 | 81 | 123 | 3.0 | 5.0 | 0.00 | 0.24 | 0.24 | 73 | 1012.1 |
| 20260902185412 | 81 | 157 | 2.0 | 5.0 | 0.00 | 0.24 | 0.24 | 72 | 1012.2 |
| 20260902184910 | 80 | 120 | 2.0 | 4.0 | 0.00 | 0.24 | 0.24 | 72 | 1012.3 |
| 20260902184640 | 80 | 137 | 2.0 | 5.0 | 0.00 | 0.24 | 0.24 | 73 | 1012.3 |
| 20260902183909 | 81 | 144 | 3.0 | 6.0 | 0.00 | 0.24 | 0.24 | 73 | 1012.5 |
| 20260902183411 | 81 | 175 | 2.0 | 6.0 | 0.00 | 0.24 | 0.24 | 74 | 1012.6 |
| 20260902182904 | 81 | 176 | 2.0 | 5.0 | 0.00 | 0.24 | 0.24 | 74 | 1012.7 |
| 20260902182404 | 80 | 321 | 3.0 | 6.0 | 0.00 | 0.24 | 0.24 | 75 | 1012.7 |
| 20260902181904 | 79 | 176 | 3.0 | 6.0 | 0.00 | 0.24 | 0.24 | 75 | 1012.7 |
| 20260902181636 | 79 | 167 | 3.0 | 6.0 | 0.00 | 0.24 | 0.24 | 76 | 1012.9 |
| 20260902180903 | 80 | 173 | 3.0 | 6.0 | 0.00 | 0.24 | 0.24 | 74 | 1012.9 |
| 20260902180404 | 80 | 182 | 3.0 | 6.0 | 0.00 | 0.24 | 0.24 | 74 | 1013.0 |
| 20260902175859 | 79 | 225 | 2.0 | 5.0 | 0.00 | 0.24 | 0.24 | 74 | 1013.0 |
| 20260902175359 | 79 | 154 | 2.0 | 5.0 | 0.00 | 0.24 | 0.24 | 77 | 1013.0 |
| 20260902174900 | 78 | 138 | 2.0 | 4.0 | 0.00 | 0.24 | 0.24 | 79 | 1012.8 |
| 20260902174630 | 78 | 144 | 2.0 | 4.0 | 0.00 | 0.24 | 0.24 | 78 | 1012.8 |
| 20260902173857 | 77 | 146 | 2.0 | 4.0 | 0.00 | 0.24 | 0.24 | 79 | 1012.9 |
| 20260902173400 | 77 | 119 | 3.0 | 5.0 | 0.00 | 0.24 | 0.24 | 79 | 1012.9 |
| 20260902173353 | 77 | 136 | 3.0 | 5.0 | 0.00 | 0.24 | 0.24 | 80 | 1013.1 |
| 20260902172352 | 76 | 132 | 3.0 | 5.0 | 0.00 | 0.24 | 0.24 | 79 | 1013.2 |
| 20260902171851 | 77 | 115 | 2.0 | 4.0 | 0.00 | 0.24 | 0.24 | 80 | 1013.2 |
| 20260902171351 | 76 | 156 | 2.0 | 3.0 | 0.00 | 0.24 | 0.24 | 80 | 1013.2 |
| 20260902170852 | 76 | 144 | 2.0 | 5.0 | 0.00 | 0.24 | 0.24 | 81 | 1013.1 |
| 20260902170353 | 76 | 206 | 1.0 | 5.0 | 0.00 | 0.24 | 0.24 | 79 | 1013.1 |
| 20260902165846 | 76 | 114 | 2.0 | 5.0 | 0.00 | 0.24 | 0.24 | 83 | 1013.1 |
| 20260902165345 | 75 | 150 | 2.0 | 5.0 | 0.00 | 0.24 | 0.24 | 82 | 1013.1 |
| 20260902164841 | 75 | 170 | 2.0 | 5.0 | 0.00 | 0.24 | 0.24 | 82 | 1013.1 |
| 20260902164339 | 75 | 126 | 2.0 | 6.0 | 0.00 | 0.24 | 0.24 | 82 | 1013.3 |
| 20260902163839 | 74 | 165 | 2.0 | 6.0 | 0.00 | 0.24 | 0.24 | 84 | 1013.2 |
| 20260902163605 | 74 | 137 | 2.0 | 3.0 | 0.00 | 0.24 | 0.24 | 86 | 1013.4 |
| 20260902162833 | 74 | 146 | 2.0 | 5.0 | 0.00 | 0.24 | 0.24 | 84 | 1013.3 |
| 20260902162331 | 73 | 165 | 1.0 | 5.0 | 0.00 | 0.24 | 0.24 | 84 | 1013.4 |
| 20260902161832 | 74 | 179 | 1.0 | 4.0 | 0.00 | 0.24 | 0.24 | 87 | 1013.4 |
| 20260902161331 | 72 | 198 | 1.0 | 3.0 | 0.00 | 0.24 | 0.24 | 88 | 1013.3 |
| 20260902160832 | 71 | 317 | 1.0 | 3.0 | 0.00 | 0.24 | 0.24 | 91 | 1013.3 |
| 20260902160332 | 70 | 305 | 1.0 | 3.0 | 0.00 | 0.24 | 0.24 | 91 | 1013.4 |
| 20260902155831 | 69 | 244 | 1.0 | 3.0 | 0.00 | 0.24 | 0.24 | 92 | 1013.3 |
| 20260902155330 | 69 | 196 | 1.0 | 3.0 | 0.00 | 0.24 | 0.24 | 92 | 1013.3 |
| 20260902155100 | 69 | 202 | 1.0 | 5.0 | 0.00 | 0.24 | 0.24 | 92 | 1013.0 |
| 20260902154603 | 69 | 173 | 2.0 | 6.0 | 0.00 | 0.24 | 0.24 | 92 | 1013.2 |
| 20260902153831 | 69 | 125 | 2.0 | 6.0 | 0.00 | 0.24 | 0.24 | 92 | 1013.1 |
| 20260902153329 | 69 | 149 | 2.0 | 5.0 | 0.00 | 0.24 | 0.24 | 92 | 1013.1 |
| 20260902152825 | 69 | 161 | 2.0 | 3.0 | 0.00 | 0.24 | 0.24 | 92 | 1013.3 |
| 20260902152554 | 69 | 155 | 1.0 | 3.0 | 0.00 | 0.24 | 0.24 | 92 | 1013.4 |
| 20260902151823 | 69 | 155 | 0.0 | 2.0 | 0.00 | 0.24 | 0.24 | 92 | 1013.4 |
| 20260902151322 | 69 | 146 | 1.0 | 4.0 | 0.00 | 0.24 | 0.24 | 93 | 1013.2 |
| 20260902150822 | 69 | 145 | 1.0 | 4.0 | 0.00 | 0.24 | 0.24 | 93 | 1013.0 |
| 20260902150323 | 69 | 146 | 1.0 | 3.0 | 0.00 | 0.24 | 0.24 | 93 | 1012.8 |
| 20260902145820 | 68 | 132 | 1.0 | 4.0 | 0.00 | 0.24 | 0.24 | 93 | 1012.9 |
| 20260902145317 | 69 | 128 | 1.0 | 4.0 | 0.00 | 0.24 | 0.24 | 94 | 1013.0 |
| 20260902145049 | 68 | 59 | 1.0 | 3.0 | 0.00 | 0.24 | 0.24 | 94 | 1013.0 |
| 20260902144315 | 68 | 58 | 1.0 | 3.0 | 0.00 | 0.24 | 0.24 | 94 | 1013.2 |
| 20260902143813 | 67 | 107 | 2.0 | 6.0 | 0.00 | 0.24 | 0.24 | 94 | 1013.3 |
| 20260902143312 | 67 | 104 | 3.0 | 7.0 | 0.00 | 0.24 | 0.24 | 94 | 1013.2 |
| 20260902142807 | 67 | 103 | 3.0 | 7.0 | 0.00 | 0.24 | 0.24 | 95 | 1012.8 |
| 20260902142308 | 67 | 107 | 1.0 | 6.0 | 0.00 | 0.24 | 0.24 | 95 | 1012.8 |
| 20260902141805 | 67 | 65 | 2.0 | 5.0 | 0.00 | 0.24 | 0.24 | 94 | 1013.1 |
| 20260902141306 | 67 | 66 | 2.0 | 5.0 | 0.00 | 0.24 | 0.24 | 95 | 1013.2 |
| 20260902140807 | 67 | 5 | 1.0 | 3.0 | 0.00 | 0.24 | 0.24 | 95 | 1013.4 |
| 20260902140305 | 67 | 5 | 1.0 | 4.0 | 0.00 | 0.24 | 0.24 | 95 | 1013.8 |
| 20260902135805 | 67 | 312 | 1.0 | 4.0 | 0.01 | 0.24 | 0.24 | 95 | 1014.3 |
| 20260902135307 | 67 | 169 | 1.0 | 5.0 | 0.01 | 0.24 | 0.24 | 96 | 1014.2 |
| 20260902134802 | 66 | 163 | 1.0 | 5.0 | 0.01 | 0.24 | 0.24 | 95 | 1014.3 |
| 20260902134303 | 66 | 198 | 1.0 | 3.0 | 0.01 | 0.24 | 0.24 | 95 | 1014.4 |
| 20260902133802 | 67 | 194 | 1.0 | 3.0 | 0.01 | 0.24 | 0.24 | 95 | 1014.2 |
| 20260902133301 | 66 | 211 | 2.0 | 5.0 | 0.01 | 0.24 | 0.24 | 95 | 1014.3 |
| 20260902132802 | 66 | 192 | 2.0 | 5.0 | 0.01 | 0.24 | 0.24 | 95 | 1014.1 |
| 20260902132306 | 66 | 53 | 1.0 | 3.0 | 0.01 | 0.24 | 0.24 | 95 | 1013.9 |
| 20260902131757 | 66 | 52 | 2.0 | 3.0 | 0.01 | 0.24 | 0.24 | 95 | 1014.2 |
| 20260902131257 | 66 | 55 | 2.0 | 4.0 | 0.01 | 0.24 | 0.24 | 95 | 1013.8 |
| 20260902130757 | 66 | 78 | 2.0 | 4.0 | 0.01 | 0.24 | 0.24 | 96 | 1013.9 |
| 20260902130530 | 66 | 71 | 1.0 | 4.0 | 0.01 | 0.24 | 0.24 | 95 | 1013.6 |
| 20260902125756 | 65 | 308 | 2.0 | 6.0 | 0.00 | 0.23 | 0.23 | 95 | 1013.8 |
| 20260902125300 | 66 | 265 | 3.0 | 6.0 | 0.00 | 0.23 | 0.23 | 95 | 1013.9 |
| 20260902125023 | 66 | 215 | 2.0 | 7.0 | 0.00 | 0.23 | 0.23 | 95 | 1013.9 |
| 20260902124254 | 65 | 166 | 2.0 | 7.0 | 0.00 | 0.23 | 0.23 | 95 | 1013.4 |
| 20260902124024 | 65 | 140 | 3.0 | 7.0 | 0.00 | 0.23 | 0.23 | 95 | 1013.1 |
| 20260902123523 | 65 | 142 | 4.0 | 8.0 | 0.00 | 0.23 | 0.23 | 95 | 1012.9 |
| 20260902123025 | 66 | 135 | 4.0 | 8.0 | 0.00 | 0.23 | 0.23 | 95 | 1012.9 |
| 20260902122255 | 66 | 142 | 3.0 | 8.0 | 0.00 | 0.23 | 0.23 | 95 | 1012.9 |
| 20260902121748 | 65 | 140 | 3.0 | 7.0 | 0.00 | 0.23 | 0.23 | 95 | 1013.3 |
| 20260902121248 | 65 | 153 | 3.0 | 7.0 | 0.00 | 0.23 | 0.23 | 95 | 1013.4 |
| 20260902120754 | 65 | 94 | 2.0 | 9.0 | 0.00 | 0.23 | 0.23 | 95 | 1013.5 |
| 20260902120749 | 65 | 121 | 2.0 | 7.0 | 0.00 | 0.23 | 0.23 | 95 | 1013.4 |
| 20260902115749 | 65 | 140 | 3.0 | 9.0 | 0.00 | 0.23 | 0.23 | 95 | 1013.2 |
| 20260902115249 | 65 | 131 | 2.0 | 5.0 | 0.00 | 0.23 | 0.23 | 95 | 1013.1 |
| 20260902114749 | 65 | 98 | 1.0 | 6.0 | 0.00 | 0.23 | 0.23 | 95 | 1013.4 |
| 20260902114247 | 65 | 96 | 1.0 | 6.0 | 0.00 | 0.23 | 0.23 | 95 | 1013.6 |
| 20260902113747 | 65 | 96 | 3.0 | 7.0 | 0.00 | 0.23 | 0.23 | 95 | 1013.7 |
| 20260902113244 | 65 | 128 | 3.0 | 7.0 | 0.00 | 0.23 | 0.23 | 95 | 1013.5 |
| 20260902112746 | 65 | 102 | 3.0 | 6.0 | 0.02 | 0.23 | 0.23 | 95 | 1013.6 |
| 20260902112510 | 65 | 113 | 4.0 | 8.0 | 0.04 | 0.23 | 0.23 | 95 | 1013.9 |
| 20260902111737 | 65 | 103 | 3.0 | 8.0 | 0.08 | 0.23 | 0.23 | 95 | 1014.0 |
| 20260902111507 | 65 | 130 | 2.0 | 7.0 | 0.13 | 0.23 | 0.23 | 95 | 1014.1 |
| 20260902110737 | 65 | 180 | 3.0 | 7.0 | 0.22 | 0.23 | 0.23 | 94 | 1014.4 |
| 20260902110235 | 65 | 66 | 3.0 | 6.0 | 0.23 | 0.23 | 0.23 | 94 | 1014.1 |
| 20260902105736 | 65 | 75 | 3.0 | 7.0 | 0.23 | 0.23 | 0.23 | 94 | 1014.4 |
| 20260902105730 | 65 | 103 | 4.0 | 8.0 | 0.23 | 0.23 | 0.23 | 94 | 1014.5 |
| 20260902105339 | 65 | 88 | 4.0 | 8.0 | 0.23 | 0.23 | 0.23 | 94 | 1014.7 |
| 20260902104227 | 65 | 78 | 3.0 | 8.0 | 0.23 | 0.23 | 0.23 | 93 | 1014.8 |
| 20260902103728 | 65 | 61 | 3.0 | 7.0 | 0.23 | 0.23 | 0.23 | 93 | 1015.2 |
| 20260902103457 | 66 | 80 | 3.0 | 8.0 | 0.23 | 0.23 | 0.23 | 93 | 1015.7 |
| 20260902102726 | 66 | 95 | 5.0 | 31.0 | 0.21 | 0.21 | 0.21 | 92 | 1016.1 |
| 20260902102223 | 66 | 340 | 7.0 | 31.0 | 0.18 | 0.18 | 0.19 | 92 | 1016.2 |
| 20260902101724 | 66 | 303 | 15.0 | 41.0 | 0.15 | 0.15 | 0.16 | 90 | 1015.7 |
| 20260902101227 | 70 | 317 | 20.0 | 48.0 | 0.01 | 0.01 | 0.03 | 86 | 1016.6 |
| 20260902101223 | 67 | 318 | 26.0 | 48.0 | 0.10 | 0.10 | 0.11 | 89 | 1015.7 |
| 20260902100224 | 73 | 289 | 6.0 | 32.0 | 0.00 | 0.00 | 0.00 | 89 | 1015.6 |
| 20260902095723 | 73 | 311 | 4.0 | 9.0 | 0.00 | 0.00 | 0.00 | 90 | 1013.6 |
| 20260902095223 | 73 | 336 | 7.0 | 13.0 | 0.00 | 0.00 | 0.00 | 89 | 1012.8 |
| 20260902094718 | 73 | 331 | 5.0 | 13.0 | 0.00 | 0.00 | 0.00 | 88 | 1012.7 |
| 20260902094217 | 73 | 310 | 1.0 | 7.0 | 0.00 | 0.00 | 0.00 | 87 | 1012.3 |
| 20260902093715 | 73 | 84 | 1.0 | 4.0 | 0.00 | 0.00 | 0.00 | 86 | 1011.9 |
| 20260902093446 | 73 | 84 | 2.0 | 7.0 | 0.00 | 0.00 | 0.00 | 87 | 1011.8 |
| 20260902092713 | 73 | 84 | 2.0 | 7.0 | 0.00 | 0.00 | 0.00 | 87 | 1011.7 |
| 20260902092211 | 73 | 105 | 3.0 | 7.0 | 0.00 | 0.00 | 0.00 | 87 | 1011.6 |
| 20260902091937 | 74 | 106 | 3.0 | 7.0 | 0.00 | 0.00 | 0.00 | 86 | 1011.7 |
| 20260902091205 | 74 | 74 | 2.0 | 5.0 | 0.00 | 0.00 | 0.00 | 86 | 1011.7 |
| 20260902090706 | 74 | 115 | 1.0 | 4.0 | 0.00 | 0.00 | 0.00 | 86 | 1012.0 |
| 20260902090437 | 74 | 115 | 2.0 | 4.0 | 0.00 | 0.00 | 0.00 | 86 | 1012.4 |
| 20260902085706 | 74 | 115 | 2.0 | 4.0 | 0.00 | 0.00 | 0.00 | 85 | 1012.5 |
| 20260902085206 | 75 | 116 | 1.0 | 4.0 | 0.00 | 0.00 | 0.00 | 86 | 1012.6 |
| 20260902084700 | 75 | 190 | 1.0 | 3.0 | 0.00 | 0.00 | 0.00 | 85 | 1013.1 |
| 20260902084203 | 75 | 193 | 1.0 | 3.0 | 0.00 | 0.00 | 0.00 | 84 | 1013.2 |
| 20260902083701 | 75 | 182 | 1.0 | 3.0 | 0.00 | 0.00 | 0.00 | 85 | 1013.1 |
| 20260902083159 | 75 | 195 | 1.0 | 4.0 | 0.00 | 0.00 | 0.00 | 84 | 1013.4 |
| 20260902082656 | 75 | 271 | 3.0 | 8.0 | 0.00 | 0.00 | 0.00 | 84 | 1013.4 |
| 20260902082428 | 76 | 304 | 2.0 | 8.0 | 0.00 | 0.00 | 0.00 | 84 | 1013.3 |
| 20260902081653 | 76 | 178 | 0.0 | 2.0 | 0.00 | 0.00 | 0.00 | 84 | 1013.1 |
| 20260902081153 | 76 | 175 | 0.0 | 3.0 | 0.00 | 0.00 | 0.00 | 83 | 1012.6 |
| 20260902080923 | 76 | 175 | 1.0 | 4.0 | 0.00 | 0.00 | 0.00 | 83 | 1012.3 |
| 20260902080154 | 77 | 182 | 1.0 | 4.0 | 0.00 | 0.00 | 0.00 | 83 | 1012.7 |
| 20260902075650 | 77 | 126 | 1.0 | 2.0 | 0.00 | 0.00 | 0.00 | 84 | 1012.8 |
| 20260902075152 | 77 | 126 | 2.0 | 8.0 | 0.00 | 0.00 | 0.00 | 85 | 1012.6 |
| 20260902074645 | 77 | 126 | 3.0 | 8.0 | 0.00 | 0.00 | 0.00 | 85 | 1012.3 |
| 20260902074144 | 77 | 130 | 3.0 | 8.0 | 0.00 | 0.00 | 0.00 | 87 | 1012.2 |
| 20260902073640 | 77 | 180 | 2.0 | 7.0 | 0.00 | 0.00 | 0.00 | 87 | 1012.6 |
| 20260902073138 | 77 | 205 | 0.0 | 3.0 | 0.00 | 0.00 | 0.00 | 87 | 1012.9 |
| 20260902072639 | 77 | 255 | 2.0 | 6.0 | 0.00 | 0.00 | 0.00 | 87 | 1012.8 |
| 20260902072404 | 77 | 207 | 3.0 | 6.0 | 0.00 | 0.00 | 0.00 | 87 | 1013.2 |
| 20260902071903 | 77 | 202 | 2.0 | 5.0 | 0.00 | 0.00 | 0.00 | 87 | 1012.9 |
| 20260902071128 | 77 | 180 | 2.0 | 3.0 | 0.00 | 0.00 | 0.00 | 88 | 1012.8 |
| 20260902070626 | 77 | 180 | 1.0 | 3.0 | 0.00 | 0.00 | 0.00 | 88 | 1012.6 |
| 20260902070127 | 77 | 180 | 0.0 | 0.0 | 0.00 | 0.00 | 0.00 | 86 | 1012.7 |
| 20260902065622 | 77 | 180 | 0.0 | 0.0 | 0.00 | 0.00 | 0.00 | 86 | 1012.6 |
| 20260902065122 | 77 | 180 | 0.0 | 0.0 | 0.00 | 0.00 | 0.00 | 86 | 1012.5 |
| 20260902064624 | 77 | 180 | 0.0 | 0.0 | 0.00 | 0.00 | 0.00 | 86 | 1012.3 |
| 20260902064122 | 78 | 180 | 0.0 | 0.0 | 0.00 | 0.00 | 0.00 | 86 | 1012.4 |
| 20260902063852 | 78 | 180 | 0.0 | 0.0 | 0.00 | 0.00 | 0.00 | 86 | 1012.4 |
| 20260902063121 | 78 | 180 | 0.0 | 0.0 | 0.00 | 0.00 | 0.00 | 85 | 1012.3 |
| 20260902062614 | 78 | 174 | 0.0 | 0.0 | 0.00 | 0.00 | 0.00 | 85 | 1012.5 |
| 20260902062114 | 78 | 174 | 0.0 | 0.0 | 0.00 | 0.00 | 0.00 | 84 | 1012.6 |
| 20260902061612 | 79 | 174 | 1.0 | 2.0 | 0.00 | 0.00 | 0.00 | 84 | 1012.8 |
| 20260902061109 | 79 | 174 | 1.0 | 2.0 | 0.00 | 0.00 | 0.00 | 83 | 1012.8 |
| 20260902060607 | 80 | 174 | 0.0 | 2.0 | 0.00 | 0.00 | 0.00 | 82 | 1012.9 |
| 20260902060106 | 80 | 174 | 0.0 | 3.0 | 0.00 | 0.00 | 0.00 | 80 | 1012.8 |
| 20260902055605 | 80 | 174 | 1.0 | 3.0 | 0.00 | 0.00 | 0.00 | 79 | 1012.7 |
| 20260902055336 | 81 | 238 | 0.0 | 2.0 | 0.00 | 0.00 | 0.00 | 76 | 1012.6 |
| 20260902054604 | 81 | 239 | 0.0 | 2.0 | 0.00 | 0.00 | 0.00 | 75 | 1012.7 |
| 20260902054104 | 81 | 239 | 0.0 | 2.0 | 0.00 | 0.00 | 0.00 | 74 | 1012.6 |
| 20260902053835 | 81 | 239 | 0.0 | 2.0 | 0.00 | 0.00 | 0.00 | 73 | 1012.5 |
| 20260902053058 | 81 | 239 | 1.0 | 3.0 | 0.00 | 0.00 | 0.00 | 73 | 1012.5 |
| 20260902052827 | 81 | 234 | 1.0 | 3.0 | 0.00 | 0.00 | 0.00 | 73 | 1012.6 |
| 20260902052056 | 81 | 233 | 1.0 | 3.0 | 0.00 | 0.00 | 0.00 | 74 | 1012.6 |
| 20260902051556 | 80 | 221 | 1.0 | 3.0 | 0.00 | 0.00 | 0.00 | 75 | 1012.5 |
| 20260902051056 | 80 | 274 | 1.0 | 3.0 | 0.00 | 0.00 | 0.00 | 76 | 1012.5 |
| 20260902050557 | 81 | 310 | 1.0 | 2.0 | 0.00 | 0.00 | 0.00 | 78 | 1012.2 |
| 20260902050052 | 81 | 311 | 0.0 | 2.0 | 0.00 | 0.00 | 0.00 | 79 | 1012.1 |
| 20260902045552 | 81 | 250 | 1.0 | 3.0 | 0.00 | 0.00 | 0.00 | 77 | 1012.2 |
| 20260902045053 | 82 | 251 | 1.0 | 3.0 | 0.00 | 0.00 | 0.00 | 75 | 1012.3 |
| 20260902044552 | 82 | 252 | 1.0 | 3.0 | 0.00 | 0.00 | 0.00 | 76 | 1012.4 |
| 20260902044052 | 82 | 254 | 1.0 | 3.0 | 0.00 | 0.00 | 0.00 | 75 | 1012.3 |
| 20260902043551 | 82 | 248 | 1.0 | 7.0 | 0.00 | 0.00 | 0.00 | 74 | 1012.5 |
| 20260902043053 | 82 | 248 | 2.0 | 7.0 | 0.00 | 0.00 | 0.00 | 75 | 1012.4 |
| 20260902042546 | 82 | 253 | 2.0 | 4.0 | 0.00 | 0.00 | 0.00 | 76 | 1012.6 |
| 20260902042046 | 81 | 258 | 2.0 | 4.0 | 0.00 | 0.00 | 0.00 | 76 | 1012.4 |
| 20260902041819 | 81 | 237 | 2.0 | 4.0 | 0.00 | 0.00 | 0.00 | 79 | 1012.5 |
| 20260902041046 | 81 | 254 | 1.0 | 4.0 | 0.00 | 0.00 | 0.00 | 81 | 1012.5 |
| 20260902040549 | 81 | 229 | 2.0 | 5.0 | 0.00 | 0.00 | 0.00 | 83 | 1012.5 |
| 20260902040045 | 81 | 220 | 2.0 | 5.0 | 0.00 | 0.00 | 0.00 | 83 | 1012.5 |
| 20260902035813 | 81 | 223 | 1.0 | 4.0 | 0.00 | 0.00 | 0.00 | 84 | 1012.5 |
| 20260902035313 | 81 | 175 | 1.0 | 4.0 | 0.00 | 0.00 | 0.00 | 85 | 1012.5 |
| 20260902034544 | 81 | 175 | 1.0 | 4.0 | 0.00 | 0.00 | 0.00 | 85 | 1012.6 |
| 20260902034040 | 81 | 196 | 1.0 | 3.0 | 0.00 | 0.00 | 0.00 | 85 | 1012.5 |
| 20260902033539 | 81 | 214 | 1.0 | 4.0 | 0.00 | 0.00 | 0.00 | 85 | 1012.5 |
| 20260902033039 | 81 | 240 | 1.0 | 4.0 | 0.00 | 0.00 | 0.00 | 85 | 1012.4 |
| 20260902032533 | 82 | 205 | 1.0 | 3.0 | 0.00 | 0.00 | 0.00 | 85 | 1012.4 |
| 20260902032032 | 82 | 205 | 0.0 | 3.0 | 0.00 | 0.00 | 0.00 | 84 | 1012.3 |
| 20260902031532 | 82 | 217 | 1.0 | 2.0 | 0.00 | 0.00 | 0.00 | 84 | 1012.3 |
| 20260902031032 | 82 | 219 | 2.0 | 4.0 | 0.00 | 0.00 | 0.00 | 84 | 1012.2 |
| 20260902030531 | 82 | 192 | 1.0 | 4.0 | 0.00 | 0.00 | 0.00 | 84 | 1012.1 |
| 20260902030031 | 82 | 192 | 1.0 | 3.0 | 0.00 | 0.00 | 0.00 | 84 | 1012.1 |
| 20260902025526 | 82 | 192 | 1.0 | 2.0 | 0.00 | 0.00 | 0.00 | 84 | 1012.1 |
| 20260902025027 | 82 | 192 | 1.0 | 2.0 | 0.00 | 0.00 | 0.00 | 84 | 1012.0 |
| 20260902024759 | 82 | 175 | 1.0 | 3.0 | 0.00 | 0.00 | 0.00 | 83 | 1011.9 |
| 20260902024026 | 82 | 175 | 1.0 | 4.0 | 0.00 | 0.00 | 0.00 | 83 | 1011.8 |
| 20260902023527 | 82 | 175 | 2.0 | 4.0 | 0.00 | 0.00 | 0.00 | 83 | 1011.9 |
| 20260902023026 | 82 | 187 | 2.0 | 4.0 | 0.00 | 0.00 | 0.00 | 83 | 1011.8 |
| 20260902022527 | 82 | 184 | 2.0 | 4.0 | 0.00 | 0.00 | 0.00 | 83 | 1011.9 |
| 20260902022028 | 83 | 180 | 1.0 | 3.0 | 0.00 | 0.00 | 0.00 | 83 | 1011.9 |
| 20260902021523 | 83 | 178 | 0.0 | 3.0 | 0.00 | 0.00 | 0.00 | 82 | 1011.9 |
| 20260902021024 | 83 | 176 | 0.0 | 2.0 | 0.00 | 0.00 | 0.00 | 82 | 1011.9 |
| 20260902020522 | 83 | 173 | 0.0 | 4.0 | 0.00 | 0.00 | 0.00 | 82 | 1012.0 |
| 20260902020023 | 83 | 171 | 1.0 | 4.0 | 0.00 | 0.00 | 0.00 | 82 | 1012.0 |
| 20260902015755 | 83 | 160 | 2.0 | 4.0 | 0.00 | 0.00 | 0.00 | 82 | 1011.9 |
| 20260902015024 | 83 | 155 | 1.0 | 3.0 | 0.00 | 0.00 | 0.00 | 81 | 1011.8 |
| 20260902014520 | 83 | 194 | 2.0 | 4.0 | 0.00 | 0.00 | 0.00 | 81 | 1011.9 |
| 20260902014252 | 83 | 193 | 2.0 | 4.0 | 0.00 | 0.00 | 0.00 | 80 | 1011.7 |
| 20260902013520 | 83 | 195 | 2.0 | 4.0 | 0.00 | 0.00 | 0.00 | 80 | 1011.7 |
| 20260902013020 | 84 | 170 | 2.0 | 4.0 | 0.00 | 0.00 | 0.00 | 79 | 1011.7 |
| 20260902012520 | 84 | 188 | 2.0 | 5.0 | 0.00 | 0.00 | 0.00 | 79 | 1011.7 |
| 20260902012026 | 84 | 188 | 2.0 | 5.0 | 0.00 | 0.00 | 0.00 | 78 | 1011.7 |
| 20260902011519 | 84 | 187 | 2.0 | 4.0 | 0.00 | 0.00 | 0.00 | 77 | 1011.6 |
| 20260902011515 | 84 | 188 | 2.0 | 4.0 | 0.00 | 0.00 | 0.00 | 78 | 1011.6 |
| 20260902010517 | 84 | 171 | 1.0 | 4.0 | 0.00 | 0.00 | 0.00 | 77 | 1011.6 |
| 20260902010016 | 84 | 248 | 1.0 | 4.0 | 0.00 | 0.00 | 0.00 | 77 | 1011.5 |
| 20260902005515 | 85 | 270 | 1.0 | 4.0 | 0.00 | 0.00 | 0.00 | 77 | 1011.3 |
| 20260902005017 | 85 | 202 | 2.0 | 6.0 | 0.00 | 0.00 | 0.00 | 77 | 1011.2 |
| 20260902004512 | 85 | 201 | 2.0 | 6.0 | 0.00 | 0.00 | 0.00 | 77 | 1011.3 |
| 20260902004244 | 85 | 170 | 2.0 | 4.0 | 0.00 | 0.00 | 0.00 | 77 | 1011.3 |
| 20260902003512 | 85 | 223 | 2.0 | 4.0 | 0.00 | 0.00 | 0.00 | 77 | 1011.3 |
| 20260902003013 | 85 | 198 | 2.0 | 4.0 | 0.00 | 0.00 | 0.00 | 77 | 1011.2 |
| 20260902002511 | 85 | 214 | 2.0 | 4.0 | 0.00 | 0.00 | 0.00 | 77 | 1011.2 |
| 20260902001511 | 86 | 188 | 2.0 | 6.0 | 0.00 | 0.00 | 0.00 | 76 | 1011.1 |
| 20260902001011 | 86 | 194 | 3.0 | 7.0 | 0.00 | 0.00 | 0.00 | 76 | 1011.0 |
| 20260902000512 | 86 | 227 | 3.0 | 7.0 | 0.00 | 0.00 | 0.00 | 76 | 1011.0 |
| 20260902000012 | 86 | 188 | 3.0 | 7.0 | 0.00 | 0.00 | 0.00 | 76 | 1011.0 |
| 20260901235513 | 86 | 186 | 4.0 | 7.0 | 0.00 | 0.00 | 0.00 | 75 | 1010.9 |
| 20260901235010 | 86 | 213 | 4.0 | 8.0 | 0.00 | 0.00 | 0.00 | 75 | 1010.8 |
| 20260901234510 | 87 | 203 | 4.0 | 8.0 | 0.00 | 0.00 | 0.00 | 75 | 1010.8 |
| 20260901234010 | 87 | 133 | 4.0 | 8.0 | 0.00 | 0.00 | 0.00 | 74 | 1010.7 |
| 20260901233510 | 87 | 186 | 4.0 | 8.0 | 0.00 | 0.00 | 0.00 | 74 | 1010.9 |
| 20260901233010 | 87 | 165 | 4.0 | 7.0 | 0.00 | 0.00 | 0.00 | 74 | 1011.0 |
| 20260901232506 | 87 | 186 | 4.0 | 8.0 | 0.00 | 0.00 | 0.00 | 73 | 1011.1 |
| 20260901232005 | 88 | 200 | 3.0 | 8.0 | 0.00 | 0.00 | 0.00 | 72 | 1011.2 |
| 20260901231507 | 88 | 217 | 3.0 | 7.0 | 0.00 | 0.00 | 0.00 | 72 | 1011.3 |
| 20260901231004 | 88 | 161 | 4.0 | 8.0 | 0.00 | 0.00 | 0.00 | 71 | 1011.3 |
| 20260901230736 | 89 | 218 | 4.0 | 8.0 | 0.00 | 0.00 | 0.00 | 70 | 1011.3 |
| 20260901230005 | 89 | 235 | 3.0 | 7.0 | 0.00 | 0.00 | 0.00 | 69 | 1011.3 |
| 20260901225504 | 89 | 182 | 4.0 | 9.0 | 0.00 | 0.00 | 0.00 | 68 | 1011.3 |
| 20260901225230 | 89 | 209 | 4.0 | 9.0 | 0.00 | 0.00 | 0.00 | 67 | 1011.3 |
| 20260901224500 | 89 | 196 | 3.0 | 10.0 | 0.00 | 0.00 | 0.00 | 66 | 1011.3 |
| 20260901224001 | 90 | 192 | 3.0 | 10.0 | 0.00 | 0.00 | 0.00 | 66 | 1011.3 |
| 20260901223501 | 90 | 167 | 3.0 | 9.0 | 0.00 | 0.00 | 0.00 | 65 | 1011.3 |
| 20260901223000 | 90 | 232 | 3.0 | 7.0 | 0.00 | 0.00 | 0.00 | 65 | 1011.3 |
| 20260901222500 | 90 | 196 | 3.0 | 7.0 | 0.00 | 0.00 | 0.00 | 65 | 1011.4 |
| 20260901222000 | 91 | 181 | 4.0 | 10.0 | 0.00 | 0.00 | 0.00 | 65 | 1011.4 |
| 20260901221456 | 91 | 164 | 4.0 | 10.0 | 0.00 | 0.00 | 0.00 | 64 | 1011.3 |
| 20260901220956 | 91 | 219 | 3.0 | 8.0 | 0.00 | 0.00 | 0.00 | 63 | 1011.3 |
| 20260901220456 | 91 | 217 | 3.0 | 8.0 | 0.00 | 0.00 | 0.00 | 64 | 1011.2 |
| 20260901215956 | 91 | 263 | 4.0 | 11.0 | 0.00 | 0.00 | 0.00 | 63 | 1011.2 |
| 20260901215457 | 91 | 190 | 5.0 | 12.0 | 0.00 | 0.00 | 0.00 | 64 | 1011.2 |
| 20260901214955 | 91 | 196 | 4.0 | 12.0 | 0.00 | 0.00 | 0.00 | 64 | 1011.2 |
| 20260901214457 | 91 | 197 | 4.0 | 10.0 | 0.00 | 0.00 | 0.00 | 64 | 1011.2 |
| 20260901213951 | 91 | 187 | 5.0 | 10.0 | 0.00 | 0.00 | 0.00 | 64 | 1011.2 |
| 20260901213449 | 92 | 193 | 5.0 | 10.0 | 0.00 | 0.00 | 0.00 | 63 | 1011.2 |
| 20260901212948 | 92 | 199 | 4.0 | 8.0 | 0.00 | 0.00 | 0.00 | 64 | 1011.3 |
| 20260901212448 | 91 | 206 | 5.0 | 12.0 | 0.00 | 0.00 | 0.00 | 64 | 1011.2 |
| 20260901211946 | 91 | 194 | 6.0 | 12.0 | 0.00 | 0.00 | 0.00 | 64 | 1011.3 |
| 20260901211447 | 91 | 178 | 6.0 | 11.0 | 0.00 | 0.00 | 0.00 | 63 | 1011.4 |